Weather History for Knox, IN

Change the Weather History Date:

Wednesday, August 28, 2013

  Actual Average (KVPZ) Record (KVPZ)
Temperature  
Mean Temperature 76 °F 69 °F  
Max Temperature 91 °F 79 °F 91 °F (2003)
Min Temperature 70 °F 59 °F 54 °F (2010)
Degree Days  
Heating Degree Days 0 1  
Month to date heating degree days 4  
Since 1 June heating degree days 49  
Since 1 July heating degree days 8  
Cooling Degree Days 10 5  
Month to date cooling degree days 172  
Year to date cooling degree days 623  
Since 1 June cooling degree days 576  
Growing Degree Days 26 (Base 50)    
Moisture  
Dew Point 70 °F    
Average Humidity 82    
Maximum Humidity 98    
Minimum Humidity 66    
Precipitation  
Precipitation 0.00 in 0.13 in 0.74 in (2009)
Month to date precipitation 3.91  
Year to date precipitation 25.14  
Sea Level Pressure  
Sea Level Pressure 29.94 in    
Wind  
Wind Speed 8 mph (NW)    
Max Wind Speed 13 mph    
Max Gust Speed -    
Visibility 8 miles    
Events      
T = Trace of Precipitation, MM = Missing Value Source: NWS Daily Summary

Daily Weather History Graph

Daily Weather History Graph

Search for Another Location

Airport:

Trip Planner

Search our weather history database for the weather conditions in past years. The results will help you decide how hot, cold, wet, or windy it might be!

Date:

Astronomy

Aug. 28, 2013 Rise Set
Actual Time 6:09 AM CDT 7:25 PM CDT
Civil Twilight 5:40 AM CDT 7:54 PM CDT
Nautical Twilight 5:06 AM CDT 8:28 PM CDT
Astronomical Twilight 4:30 AM CDT 9:04 PM CDT
Moon 11:59 PM CDT (8/28) 2:04 PM CDT (8/28)
Length of Visible Light 14h 13m
Length of Day
13h 16m
Waning Gibbous, 47% of the Moon is Illuminated
Aug 28
Waning Gibbous
Sep 5
New
Sep 12
First Quarter
Sep 19
Full
Sep 26
Last Quarter

Hourly Weather History & Observations

Time (CDT) Temp. Heat Index Dew Point Humidity Pressure Visibility Wind Dir Wind Speed Gust Speed Precip Events Conditions
12:15 AM 78.1 °F - 69.4 °F 75% 29.87 in 10.0 mi WSW 9.2 mph - N/A   Clear
12:35 AM 77.9 °F - 69.1 °F 74% 29.87 in 10.0 mi WSW 8.1 mph - N/A   Clear
12:55 AM 77.9 °F - 68.7 °F 73% 29.88 in 10.0 mi WSW 8.1 mph - N/A   Clear
1:15 AM 77.9 °F - 68.2 °F 72% 29.88 in 10.0 mi WSW 9.2 mph - N/A   Clear
1:35 AM 77.5 °F - 67.8 °F 72% 29.88 in 10.0 mi WSW 8.1 mph - N/A   Clear
1:55 AM 77.2 °F - 67.6 °F 72% 29.88 in 10.0 mi WSW 4.6 mph - N/A   Mostly Cloudy
2:15 AM 77.2 °F - 66.4 °F 69% 29.88 in 10.0 mi SW 8.1 mph - N/A   Overcast
2:35 AM 77.2 °F - 65.8 °F 68% 29.88 in 10.0 mi SW 8.1 mph - N/A   Overcast
2:55 AM 77.4 °F - 65.5 °F 67% 29.88 in 10.0 mi SW 8.1 mph - N/A   Overcast
3:15 AM 77.4 °F - 65.3 °F 66% 29.88 in 10.0 mi SW 6.9 mph - N/A   Overcast
3:35 AM 77.2 °F - 65.1 °F 66% 29.88 in 10.0 mi SW 5.8 mph - N/A   Overcast
3:55 AM 76.8 °F - 65.1 °F 67% 29.88 in 10.0 mi SW 5.8 mph - N/A   Overcast
4:15 AM 76.1 °F - 64.9 °F 68% 29.88 in 10.0 mi SW 6.9 mph - N/A   Mostly Cloudy
4:35 AM 75.4 °F - 64.6 °F 69% 29.89 in 10.0 mi SW 6.9 mph - N/A   Scattered Clouds
4:55 AM 74.5 °F - 64.6 °F 71% 29.89 in 10.0 mi SW 6.9 mph - N/A   Clear
5:15 AM 73.6 °F - 64.8 °F 74% 29.89 in 10.0 mi SW 5.8 mph - N/A   Scattered Clouds
5:35 AM 73.0 °F - 65.1 °F 76% 29.89 in 10.0 mi SW 6.9 mph - N/A   Mostly Cloudy
5:55 AM 72.7 °F - 65.7 °F 79% 29.89 in 10.0 mi WSW 6.9 mph - N/A   Scattered Clouds
6:15 AM 72.3 °F - 66.2 °F 81% 29.90 in 10.0 mi WSW 5.8 mph - N/A   Scattered Clouds
6:35 AM 71.8 °F - 66.6 °F 84% 29.90 in 10.0 mi WSW 6.9 mph - N/A   Clear
6:55 AM 72.1 °F - 66.7 °F 83% 29.90 in 10.0 mi WSW 8.1 mph - N/A   Clear
7:15 AM 73.4 °F - 66.7 °F 80% 29.90 in 10.0 mi West 8.1 mph - N/A   Clear
7:35 AM 74.5 °F - 66.9 °F 77% 29.90 in 10.0 mi West 8.1 mph - N/A   Clear
7:55 AM 75.2 °F - 67.1 °F 76% 29.91 in 10.0 mi West 9.2 mph - N/A   Scattered Clouds
8:15 AM 75.9 °F - 67.5 °F 75% 29.91 in 10.0 mi West 8.1 mph - N/A   Scattered Clouds
8:35 AM 76.6 °F - 68.2 °F 75% 29.90 in 10.0 mi West 9.2 mph - N/A   Clear
8:55 AM 77.7 °F - 68.5 °F 73% 29.90 in 10.0 mi West 8.1 mph - N/A   Clear
9:15 AM 79.0 °F - 69.8 °F 73% 29.91 in 10.0 mi West 9.2 mph - N/A   Clear
9:35 AM 80.1 °F 83.8 °F 72.0 °F 76% 29.92 in 10.0 mi NNW 11.5 mph - N/A   Clear
9:55 AM 80.6 °F 85.4 °F 73.4 °F 79% 29.93 in 10.0 mi NW 11.5 mph - N/A   Scattered Clouds
10:15 AM 79.0 °F - 73.4 °F 83% 29.93 in 10.0 mi NW 10.4 mph - N/A   Mostly Cloudy
10:35 AM 77.9 °F - 73.4 °F 86% 29.94 in 7.0 mi NNW 11.5 mph - N/A   Overcast
10:55 AM 77.4 °F - 73.4 °F 88% 29.94 in 5.0 mi NNW 10.4 mph - N/A   Overcast
11:15 AM 77.4 °F - 73.6 °F 88% 29.94 in 5.0 mi NNW 8.1 mph - N/A   Overcast
11:35 AM 77.7 °F - 73.6 °F 87% 29.94 in 7.0 mi NW 9.2 mph - N/A   Overcast
11:55 AM 79.0 °F - 73.9 °F 84% 29.95 in 10.0 mi NNW 6.9 mph - N/A   Overcast
12:15 PM 80.4 °F 85.5 °F 74.3 °F 82% 29.94 in 10.0 mi NNW 5.8 mph - N/A   Mostly Cloudy
12:35 PM 81.1 °F 86.4 °F 73.8 °F 78% 29.95 in 10.0 mi NNW 9.2 mph - N/A   Mostly Cloudy
12:55 PM 81.0 °F 86.2 °F 73.8 °F 79% 29.95 in 10.0 mi North 11.5 mph - N/A   Overcast
1:15 PM 81.5 °F 86.9 °F 73.8 °F 77% 29.95 in 10.0 mi North 10.4 mph - N/A   Overcast
1:35 PM 81.5 °F 86.7 °F 73.4 °F 76% 29.96 in 10.0 mi NNW 10.4 mph - N/A   Mostly Cloudy
1:55 PM 81.1 °F 86.2 °F 73.4 °F 77% 29.96 in 10.0 mi NNW 11.5 mph - N/A   Mostly Cloudy
2:15 PM 79.9 °F - 72.9 °F 79% 29.96 in 10.0 mi North 12.7 mph - N/A   Overcast
2:35 PM 79.0 °F - 72.5 °F 80% 29.96 in 10.0 mi NNW 10.4 mph - N/A   Overcast
2:55 PM 78.8 °F - 72.3 °F 80% 29.96 in 10.0 mi NNW 11.5 mph - N/A   Overcast
3:15 PM 78.3 °F - 72.3 °F 82% 29.96 in 10.0 mi NNW 10.4 mph - N/A   Overcast
3:35 PM 77.4 °F - 72.3 °F 84% 29.97 in 10.0 mi North 10.4 mph - N/A   Overcast
3:55 PM 77.0 °F - 72.0 °F 84% 29.97 in 7.0 mi NNW 9.2 mph - N/A   Overcast
4:15 PM 77.2 °F - 72.0 °F 84% 29.97 in 5.0 mi North 9.2 mph - N/A   Overcast
4:35 PM 77.2 °F - 72.0 °F 84% 29.97 in 5.0 mi NW 9.2 mph - N/A   Overcast
4:55 PM 77.2 °F - 72.1 °F 84% 29.97 in 7.0 mi NNW 9.2 mph - N/A   Overcast
5:15 PM 77.2 °F - 72.1 °F 84% 29.97 in 7.0 mi NNW 9.2 mph - N/A   Overcast
5:35 PM 76.8 °F - 72.3 °F 86% 29.98 in 7.0 mi NNW 10.4 mph - N/A   Overcast
5:55 PM 76.1 °F - 72.0 °F 87% 29.98 in 10.0 mi NNW 10.4 mph - N/A   Overcast
6:15 PM 75.4 °F - 71.6 °F 88% 29.98 in 10.0 mi NNW 9.2 mph - N/A   Overcast
6:35 PM 75.2 °F - 71.4 °F 88% 29.98 in 10.0 mi NNW 9.2 mph - N/A   Overcast
6:55 PM 74.7 °F - 71.4 °F 90% 29.98 in 10.0 mi NNW 11.5 mph - N/A   Overcast
7:15 PM 73.8 °F - 70.9 °F 91% 29.99 in 10.0 mi NNW 10.4 mph - N/A   Overcast
7:35 PM 73.0 °F - 70.7 °F 92% 29.99 in 7.0 mi NNW 6.9 mph - N/A   Overcast
7:55 PM 72.7 °F - 70.7 °F 93% 29.99 in 7.0 mi NNW 8.1 mph - N/A   Overcast
8:15 PM 72.5 °F - 70.7 °F 94% 30.00 in 7.0 mi NNW 10.4 mph - N/A   Overcast
8:35 PM 72.1 °F - 70.3 °F 94% 30.01 in 7.0 mi North 6.9 mph - N/A   Overcast
8:55 PM 71.8 °F - 70.2 °F 95% 30.01 in 5.0 mi North 8.1 mph - N/A   Overcast
9:15 PM 71.1 °F - 70.0 °F 96% 30.02 in 4.0 mi North 8.1 mph - N/A   Overcast
9:35 PM 70.9 °F - 69.8 °F 96% 30.02 in 4.0 mi North 6.9 mph - N/A   Overcast
9:55 PM 70.9 °F - 69.8 °F 96% 30.03 in 4.0 mi North 6.9 mph - N/A   Overcast
10:15 PM 70.7 °F - 69.8 °F 97% 30.03 in 2.5 mi North 8.1 mph - N/A   Overcast
10:35 PM 70.3 °F - 69.4 °F 97% 30.03 in 1.2 mi NNE 5.8 mph - N/A   Overcast
10:55 PM 70.2 °F - 69.3 °F 97% 30.03 in 1.2 mi NNE 8.1 mph - N/A   Overcast
11:15 PM 70.2 °F - 69.3 °F 97% 30.03 in 0.8 mi NNE 4.6 mph - N/A   Overcast
11:35 PM 70.0 °F - 69.3 °F 98% 30.03 in 1.8 mi NNE 5.8 mph - N/A   Overcast
11:55 PM 70.2 °F - 69.4 °F 98% 30.03 in 1.8 mi North 4.6 mph - N/A   Overcast